sim
Sign-in with your pilot id or email,
or register
Callsign
Passwort

Schedule Details

Flight Number: RYR5082 (2)
Departure: Paphos International Airport (LCPH) at 20:05
Arrival: Thessaloniki International Airport (LGTS) at 22:10
Route: Ryanair Passenger Schedule. Enter filed route here before submitting Pirep.

Weather Information
Getting current METAR information for LCPH 211830Z 34004KT CAVOK 25/22 Q1010
Getting current METAR information for LGTS 211850Z 11004KT CAVOK 27/13 Q1017 NOSIG

Schedule Frequency

Route Map